Wetterdaten: Donnerstag, 12.11.2015
Datum Zeit Auen-Temp. Temp gefhlt Luftfeuchte Luftdruck Regen Wind Richtung Richtung Taupunkt Windben
12.11.2015 00:00 0,8 C 0,5 C 86 % 1025,0 hPa 0,0 mm 0,0 km/h (0 Bft) O-SO 112 -1,3 C 0,0 km/h (0 Bft)
12.11.2015 00:05 0,6 C 0,4 C 86 % 1025,0 hPa 0,0 mm 0,0 km/h (0 Bft) O-SO 112 -1,5 C 0,0 km/h (0 Bft)
12.11.2015 00:10 0,8 C 0,5 C 86 % 1025,2 hPa 0,0 mm 0,0 km/h (0 Bft) O-SO 112 -1,3 C 0,0 km/h (0 Bft)
12.11.2015 00:15 0,8 C 0,5 C 86 % 1025,2 hPa 0,0 mm 0,0 km/h (0 Bft) O-SO 112 -1,3 C 0,0 km/h (0 Bft)
12.11.2015 00:20 0,9 C 0,6 C 87 % 1025,2 hPa 0,0 mm 0,0 km/h (0 Bft) O-SO 112 -1,0 C 0,0 km/h (0 Bft)
12.11.2015 00:25 0,6 C 0,4 C 87 % 1025,2 hPa 0,0 mm 0,0 km/h (0 Bft) O-SO 112 -1,3 C 0,0 km/h (0 Bft)
12.11.2015 00:30 0,5 C 0,3 C 86 % 1024,9 hPa 0,0 mm 0,0 km/h (0 Bft) O-SO 112 -1,6 C 0,0 km/h (0 Bft)
12.11.2015 00:35 0,4 C 0,3 C 86 % 1024,9 hPa 0,0 mm 0,0 km/h (0 Bft) O-SO 112 -1,7 C 0,0 km/h (0 Bft)
12.11.2015 00:40 0,3 C 0,2 C 86 % 1024,9 hPa 0,0 mm 0,0 km/h (0 Bft) O-SO 112 -1,8 C 0,0 km/h (0 Bft)
12.11.2015 00:45 0,4 C 0,3 C 87 % 1024,9 hPa 0,0 mm 0,0 km/h (0 Bft) O-SO 112 -1,5 C 0,0 km/h (0 Bft)
12.11.2015 00:50 0,3 C 0,1 C 87 % 1024,9 hPa 0,0 mm 0,0 km/h (0 Bft) O-NO 67 -1,6 C 0,0 km/h (0 Bft)
12.11.2015 00:55 0,4 C 0,1 C 87 % 1024,9 hPa 0,0 mm 0,0 km/h (0 Bft) O-NO 67 -1,5 C 0,0 km/h (0 Bft)
12.11.2015 01:00 1,0 C 0,5 C 87 % 1024,9 hPa 0,0 mm 0,0 km/h (0 Bft) O-NO 67 -0,9 C 0,0 km/h (0 Bft)
12.11.2015 01:05 0,7 C 0,3 C 87 % 1024,9 hPa 0,0 mm 0,0 km/h (0 Bft) O-NO 67 -1,2 C 0,0 km/h (0 Bft)
12.11.2015 01:10 0,4 C 0,1 C 87 % 1024,8 hPa 0,0 mm 0,0 km/h (0 Bft) O-NO 67 -1,5 C 0,0 km/h (0 Bft)
12.11.2015 01:15 0,5 C 0,2 C 87 % 1024,8 hPa 0,0 mm 0,0 km/h (0 Bft) O-NO 67 -1,4 C 0,0 km/h (0 Bft)
12.11.2015 01:20 0,7 C 0,3 C 88 % 1024,8 hPa 0,0 mm 0,0 km/h (0 Bft) O-NO 67 -1,1 C 0,0 km/h (0 Bft)
12.11.2015 01:25 0,4 C 0,1 C 88 % 1024,8 hPa 0,0 mm 0,0 km/h (0 Bft) O-NO 67 -1,3 C 0,0 km/h (0 Bft)
12.11.2015 01:30 0,9 C 0,5 C 88 % 1024,7 hPa 0,0 mm 0,0 km/h (0 Bft) O-NO 67 -0,9 C 0,0 km/h (0 Bft)
12.11.2015 01:35 0,8 C 0,4 C 88 % 1024,7 hPa 0,0 mm 0,0 km/h (0 Bft) O-NO 67 -1,0 C 0,0 km/h (0 Bft)
12.11.2015 01:40 0,7 C 0,3 C 88 % 1024,7 hPa 0,0 mm 0,0 km/h (0 Bft) O-NO 67 -1,1 C 0,0 km/h (0 Bft)
12.11.2015 01:45 0,5 C 0,2 C 88 % 1024,7 hPa 0,0 mm 0,0 km/h (0 Bft) O-NO 67 -1,3 C 0,0 km/h (0 Bft)
12.11.2015 01:50 0,6 C 0,3 C 88 % 1024,7 hPa 0,0 mm 0,0 km/h (0 Bft) O-NO 67 -1,2 C 0,0 km/h (0 Bft)
12.11.2015 01:55 0,6 C 0,3 C 88 % 1024,7 hPa 0,0 mm 0,0 km/h (0 Bft) O-NO 67 -1,2 C 0,0 km/h (0 Bft)
12.11.2015 02:00 0,5 C 0,2 C 88 % 1024,7 hPa 0,0 mm 0,0 km/h (0 Bft) O-NO 67 -1,3 C 0,0 km/h (0 Bft)
12.11.2015 02:05 0,6 C 0,3 C 88 % 1024,7 hPa 0,0 mm 0,0 km/h (0 Bft) O-NO 67 -1,2 C 0,0 km/h (0 Bft)
12.11.2015 02:10 0,4 C 0,1 C 88 % 1024,8 hPa 0,0 mm 0,0 km/h (0 Bft) O-NO 67 -1,3 C 0,0 km/h (0 Bft)
12.11.2015 02:15 0,4 C 0,1 C 88 % 1024,8 hPa 0,0 mm 0,0 km/h (0 Bft) O-NO 67 -1,3 C 0,0 km/h (0 Bft)
12.11.2015 02:20 0,0 C -0,1 C 88 % 1024,8 hPa 0,0 mm 0,0 km/h (0 Bft) O-NO 67 -1,7 C 0,0 km/h (0 Bft)
12.11.2015 02:25 -0,1 C -0,2 C 87 % 1024,8 hPa 0,0 mm 0,0 km/h (0 Bft) O-NO 67 -2,0 C 0,0 km/h (0 Bft)
12.11.2015 02:30 -0,3 C -0,3 C 87 % 1024,7 hPa 0,0 mm 0,0 km/h (0 Bft) O-NO 67 -2,2 C 0,0 km/h (0 Bft)
12.11.2015 02:35 -0,2 C -0,3 C 87 % 1024,7 hPa 0,0 mm 0,0 km/h (0 Bft) O-NO 67 -2,1 C 0,0 km/h (0 Bft)
12.11.2015 02:40 -0,1 C -0,2 C 87 % 1024,7 hPa 0,0 mm 0,0 km/h (0 Bft) O-NO 67 -2,0 C 0,0 km/h (0 Bft)
12.11.2015 02:42 -0,1 C -0,2 C 87 % 1024,7 hPa 0,0 mm 0,0 km/h (0 Bft) O-NO 67 -2,0 C 0,0 km/h (0 Bft)
12.11.2015 02:45 0,1 C -0,1 C 88 % 1024,7 hPa 0,0 mm 0,0 km/h (0 Bft) O-NO 67 -1,6 C 0,0 km/h (0 Bft)
12.11.2015 02:50 -0,4 C -0,4 C 87 % 1024,9 hPa 0,0 mm 0,0 km/h (0 Bft) O-NO 67 -2,3 C 0,0 km/h (0 Bft)
12.11.2015 02:55 -0,4 C -0,4 C 87 % 1024,9 hPa 0,0 mm 0,0 km/h (0 Bft) O-NO 67 -2,3 C 0,0 km/h (0 Bft)
12.11.2015 03:00 -0,6 C -0,4 C 87 % 1024,9 hPa 0,0 mm 0,0 km/h (0 Bft) O-NO 67 -2,5 C 0,0 km/h (0 Bft)
12.11.2015 03:05 -0,6 C -0,4 C 87 % 1024,9 hPa 0,0 mm 0,0 km/h (0 Bft) O-NO 67 -2,5 C 0,0 km/h (0 Bft)
12.11.2015 03:10 -0,4 C -0,4 C 88 % 1025,0 hPa 0,0 mm 0,0 km/h (0 Bft) O-NO 67 -2,1 C 0,0 km/h (0 Bft)
12.11.2015 03:15 0,6 C 0,5 C 84 % 1025,0 hPa 0,0 mm 0,0 km/h (0 Bft) O-NO 67 -1,8 C 0,0 km/h (0 Bft)
12.11.2015 03:20 2,4 C 1,5 C 89 % 1025,0 hPa 0,0 mm 0,0 km/h (0 Bft) O-NO 67 0,8 C 0,0 km/h (0 Bft)
12.11.2015 03:25 2,8 C 1,7 C 88 % 1025,0 hPa 0,0 mm 0,0 km/h (0 Bft) O-NO 67 1,0 C 0,0 km/h (0 Bft)
12.11.2015 03:30 3,3 C 2,1 C 85 % 1025,2 hPa 0,0 mm 0,0 km/h (0 Bft) O-NO 67 1,0 C 0,0 km/h (0 Bft)
12.11.2015 03:35 3,7 C 2,4 C 79 % 1025,2 hPa 0,0 mm 0,0 km/h (0 Bft) O-NO 67 0,4 C 0,0 km/h (0 Bft)
12.11.2015 03:40 1,8 C 1,1 C 81 % 1025,2 hPa 0,0 mm 0,0 km/h (0 Bft) O-NO 67 -1,1 C 0,0 km/h (0 Bft)
12.11.2015 03:45 0,8 C 0,4 C 80 % 1025,2 hPa 0,0 mm 0,0 km/h (0 Bft) O-NO 67 -2,2 C 0,0 km/h (0 Bft)
12.11.2015 03:50 0,4 C 0,1 C 80 % 1025,2 hPa 0,0 mm 0,0 km/h (0 Bft) O-NO 67 -2,6 C 0,0 km/h (0 Bft)
12.11.2015 03:55 0,3 C 0,1 C 81 % 1025,2 hPa 0,0 mm 0,0 km/h (0 Bft) O-NO 67 -2,6 C 0,0 km/h (0 Bft)
12.11.2015 04:00 0,3 C 0,1 C 82 % 1025,2 hPa 0,0 mm 0,0 km/h (0 Bft) O-NO 67 -2,4 C 0,0 km/h (0 Bft)
12.11.2015 04:05 0,2 C 0,0 C 82 % 1025,2 hPa 0,0 mm 0,0 km/h (0 Bft) O-NO 67 -2,5 C 0,0 km/h (0 Bft)
12.11.2015 04:10 0,4 C 0,1 C 83 % 1025,3 hPa 0,0 mm 0,0 km/h (0 Bft) O-NO 67 -2,1 C 0,0 km/h (0 Bft)
12.11.2015 04:15 0,3 C 0,1 C 83 % 1025,3 hPa 0,0 mm 0,0 km/h (0 Bft) O-NO 67 -2,2 C 0,0 km/h (0 Bft)
12.11.2015 04:20 0,3 C 0,1 C 84 % 1025,3 hPa 0,0 mm 0,0 km/h (0 Bft) O-NO 67 -2,1 C 0,0 km/h (0 Bft)
12.11.2015 04:25 0,1 C -0,1 C 84 % 1025,3 hPa 0,0 mm 0,0 km/h (0 Bft) O-NO 67 -2,3 C 0,0 km/h (0 Bft)
12.11.2015 04:30 0,2 C 0,0 C 84 % 1025,5 hPa 0,0 mm 0,0 km/h (0 Bft) O-NO 67 -2,2 C 0,0 km/h (0 Bft)
12.11.2015 04:35 0,0 C -0,1 C 84 % 1025,5 hPa 0,0 mm 0,0 km/h (0 Bft) O-NO 67 -2,4 C 0,0 km/h (0 Bft)
12.11.2015 04:40 -0,4 C -0,4 C 84 % 1025,5 hPa 0,0 mm 0,0 km/h (0 Bft) O-NO 67 -2,8 C 0,0 km/h (0 Bft)
12.11.2015 04:45 -0,5 C -0,4 C 84 % 1025,5 hPa 0,0 mm 0,0 km/h (0 Bft) O-NO 67 -2,9 C 0,0 km/h (0 Bft)
12.11.2015 04:50 -0,1 C -0,2 C 85 % 1025,6 hPa 0,0 mm 0,0 km/h (0 Bft) O-NO 67 -2,3 C 0,0 km/h (0 Bft)
12.11.2015 04:55 -0,2 C -0,3 C 85 % 1025,6 hPa 0,0 mm 0,0 km/h (0 Bft) O-NO 67 -2,4 C 0,0 km/h (0 Bft)
12.11.2015 05:00 -0,5 C -0,4 C 85 % 1025,6 hPa 0,0 mm 0,0 km/h (0 Bft) O-NO 67 -2,7 C 0,0 km/h (0 Bft)
12.11.2015 05:05 -0,7 C -0,4 C 85 % 1025,6 hPa 0,0 mm 0,0 km/h (0 Bft) O-NO 67 -2,9 C 0,0 km/h (0 Bft)
12.11.2015 05:10 -0,4 C -0,3 C 81 % 1025,6 hPa 0,0 mm 0,0 km/h (0 Bft) O-NO 67 -3,3 C 0,0 km/h (0 Bft)
12.11.2015 05:15 -0,4 C -0,3 C 81 % 1025,6 hPa 0,0 mm 0,0 km/h (0 Bft) O-NO 67 -3,3 C 0,0 km/h (0 Bft)
12.11.2015 05:20 -0,4 C -0,4 C 86 % 1025,6 hPa 0,0 mm 0,0 km/h (0 Bft) O-NO 67 -2,4 C 0,0 km/h (0 Bft)
12.11.2015 05:25 -0,4 C -0,4 C 86 % 1025,6 hPa 0,0 mm 0,0 km/h (0 Bft) O-NO 67 -2,4 C 0,0 km/h (0 Bft)
12.11.2015 05:30 -0,4 C -0,4 C 86 % 1026,0 hPa 0,0 mm 0,0 km/h (0 Bft) O-NO 67 -2,4 C 0,0 km/h (0 Bft)
12.11.2015 05:35 -0,5 C -0,4 C 86 % 1026,0 hPa 0,0 mm 0,0 km/h (0 Bft) O-NO 67 -2,5 C 0,0 km/h (0 Bft)
12.11.2015 05:40 -1,0 C -0,4 C 86 % 1026,0 hPa 0,0 mm 0,0 km/h (0 Bft) O-NO 67 -3,0 C 0,0 km/h (0 Bft)
12.11.2015 05:45 -0,6 C -0,4 C 86 % 1026,0 hPa 0,0 mm 0,0 km/h (0 Bft) O-NO 67 -2,6 C 0,0 km/h (0 Bft)
12.11.2015 05:50 -0,7 C -0,4 C 86 % 1026,0 hPa 0,0 mm 0,0 km/h (0 Bft) O-NO 67 -2,7 C 0,0 km/h (0 Bft)
12.11.2015 05:55 -0,7 C -0,4 C 86 % 1026,0 hPa 0,0 mm 0,0 km/h (0 Bft) O-NO 67 -2,7 C 0,0 km/h (0 Bft)
12.11.2015 06:00 -1,0 C -0,4 C 86 % 1026,0 hPa 0,0 mm 0,0 km/h (0 Bft) O-NO 67 -3,0 C 0,0 km/h (0 Bft)
12.11.2015 06:05 -0,9 C -0,4 C 86 % 1026,0 hPa 0,0 mm 0,0 km/h (0 Bft) O-NO 67 -2,9 C 0,0 km/h (0 Bft)
12.11.2015 06:10 -0,9 C -0,4 C 86 % 1026,2 hPa 0,0 mm 0,0 km/h (0 Bft) O-NO 67 -2,9 C 0,0 km/h (0 Bft)
12.11.2015 06:15 -0,9 C -0,4 C 82 % 1026,2 hPa 0,0 mm 0,0 km/h (0 Bft) O-NO 67 -3,6 C 0,0 km/h (0 Bft)
12.11.2015 06:20 -1,1 C -0,4 C 87 % 1026,2 hPa 0,0 mm 0,0 km/h (0 Bft) O-NO 67 -3,0 C 0,0 km/h (0 Bft)
12.11.2015 06:25 -0,9 C -0,4 C 82 % 1026,2 hPa 0,0 mm 0,0 km/h (0 Bft) O-NO 67 -3,6 C 0,0 km/h (0 Bft)
12.11.2015 06:30 -1,1 C -0,4 C 87 % 1026,3 hPa 0,0 mm 0,0 km/h (0 Bft) O-NO 67 -3,0 C 0,0 km/h (0 Bft)
12.11.2015 06:35 -1,0 C -0,4 C 87 % 1026,3 hPa 0,0 mm 0,0 km/h (0 Bft) O-NO 67 -2,9 C 0,0 km/h (0 Bft)
12.11.2015 06:40 -1,4 C -0,4 C 87 % 1026,3 hPa 0,0 mm 0,0 km/h (0 Bft) O-NO 67 -3,3 C 0,0 km/h (0 Bft)
12.11.2015 06:45 -1,5 C -0,4 C 87 % 1026,3 hPa 0,0 mm 0,0 km/h (0 Bft) O-NO 67 -3,4 C 0,0 km/h (0 Bft)
12.11.2015 06:50 -1,3 C -0,4 C 87 % 1026,4 hPa 0,0 mm 0,0 km/h (0 Bft) O-NO 67 -3,2 C 0,0 km/h (0 Bft)
12.11.2015 06:55 -1,3 C -0,4 C 87 % 1026,4 hPa 0,0 mm 0,0 km/h (0 Bft) O-NO 67 -3,2 C 0,0 km/h (0 Bft)
12.11.2015 07:00 -1,4 C -0,4 C 87 % 1026,4 hPa 0,0 mm 0,0 km/h (0 Bft) O-NO 67 -3,3 C 0,0 km/h (0 Bft)
12.11.2015 07:05 -1,6 C -0,4 C 87 % 1026,4 hPa 0,0 mm 0,0 km/h (0 Bft) O-NO 67 -3,5 C 0,0 km/h (0 Bft)
12.11.2015 07:10 -1,7 C -0,4 C 87 % 1026,4 hPa 0,0 mm 0,0 km/h (0 Bft) O-NO 67 -3,6 C 0,0 km/h (0 Bft)
12.11.2015 07:15 -1,6 C -0,4 C 87 % 1026,4 hPa 0,0 mm 0,0 km/h (0 Bft) O-NO 67 -3,5 C 0,0 km/h (0 Bft)
12.11.2015 07:20 -1,4 C -0,4 C 87 % 1026,4 hPa 0,0 mm 0,0 km/h (0 Bft) O-NO 67 -3,3 C 0,0 km/h (0 Bft)
12.11.2015 07:25 -1,3 C -0,4 C 88 % 1026,4 hPa 0,0 mm 0,0 km/h (0 Bft) O-NO 67 -3,0 C 0,0 km/h (0 Bft)
12.11.2015 07:30 -1,2 C -0,4 C 88 % 1026,7 hPa 0,0 mm 0,0 km/h (0 Bft) O-NO 67 -2,9 C 0,0 km/h (0 Bft)
12.11.2015 07:35 -1,3 C -0,4 C 88 % 1026,7 hPa 0,0 mm 0,0 km/h (0 Bft) O-NO 67 -3,0 C 0,0 km/h (0 Bft)
12.11.2015 07:40 -1,5 C -0,4 C 88 % 1026,7 hPa 0,0 mm 0,0 km/h (0 Bft) O-NO 67 -3,2 C 0,0 km/h (0 Bft)
12.11.2015 07:45 -1,4 C -0,4 C 88 % 1026,7 hPa 0,0 mm 0,0 km/h (0 Bft) O-NO 67 -3,1 C 0,0 km/h (0 Bft)
12.11.2015 07:50 -1,5 C -0,4 C 88 % 1027,0 hPa 0,0 mm 0,0 km/h (0 Bft) O-NO 67 -3,2 C 0,0 km/h (0 Bft)
12.11.2015 07:55 -1,6 C -0,4 C 88 % 1027,0 hPa 0,0 mm 0,0 km/h (0 Bft) O-NO 67 -3,3 C 0,0 km/h (0 Bft)
12.11.2015 08:00 -1,3 C -0,4 C 88 % 1027,0 hPa 0,0 mm 0,0 km/h (0 Bft) O-NO 67 -3,0 C 0,0 km/h (0 Bft)
12.11.2015 08:05 -1,1 C -0,4 C 88 % 1027,0 hPa 0,0 mm 0,0 km/h (0 Bft) O-NO 67 -2,8 C 0,0 km/h (0 Bft)
12.11.2015 08:10 -1,1 C -0,4 C 88 % 1027,2 hPa 0,0 mm 0,0 km/h (0 Bft) O-NO 67 -2,8 C 0,0 km/h (0 Bft)
12.11.2015 08:15 -1,0 C -0,4 C 84 % 1027,2 hPa 0,0 mm 0,0 km/h (0 Bft) O-NO 67 -3,4 C 0,0 km/h (0 Bft)
12.11.2015 08:20 -0,9 C -0,4 C 84 % 1027,2 hPa 0,0 mm 0,0 km/h (0 Bft) O-NO 67 -3,3 C 0,0 km/h (0 Bft)
12.11.2015 08:25 -0,8 C -0,4 C 84 % 1027,2 hPa 0,0 mm 0,0 km/h (0 Bft) O-NO 67 -3,2 C 0,0 km/h (0 Bft)
12.11.2015 08:30 -0,3 C -0,1 C 84 % 1027,5 hPa 0,0 mm 0,0 km/h (0 Bft) O-NO 67 -2,7 C 0,0 km/h (0 Bft)
12.11.2015 08:35 -0,3 C -0,2 C 84 % 1027,5 hPa 0,0 mm 0,0 km/h (0 Bft) O-NO 67 -2,7 C 0,0 km/h (0 Bft)
12.11.2015 08:40 0,0 C -0,1 C 85 % 1027,5 hPa 0,0 mm 0,0 km/h (0 Bft) O-NO 67 -2,2 C 0,0 km/h (0 Bft)
12.11.2015 08:43 0,0 C -0,1 C 85 % 1027,5 hPa 0,0 mm 0,0 km/h (0 Bft) O-NO 67 -2,2 C 0,0 km/h (0 Bft)
12.11.2015 08:45 0,1 C -0,1 C 90 % 1027,5 hPa 0,0 mm 0,0 km/h (0 Bft) O-NO 67 -1,3 C 0,0 km/h (0 Bft)
12.11.2015 08:50 0,2 C 0,1 C 85 % 1027,7 hPa 0,0 mm 0,0 km/h (0 Bft) O-NO 67 -2,0 C 0,0 km/h (0 Bft)
12.11.2015 08:55 0,6 C 0,5 C 85 % 1027,7 hPa 0,0 mm 0,0 km/h (0 Bft) O-NO 67 -1,6 C 0,0 km/h (0 Bft)
12.11.2015 09:00 0,8 C 0,5 C 85 % 1027,7 hPa 0,0 mm 0,0 km/h (0 Bft) O-NO 67 -1,4 C 0,0 km/h (0 Bft)
12.11.2015 09:05 0,8 C 0,5 C 85 % 1027,7 hPa 0,0 mm 0,0 km/h (0 Bft) O-NO 67 -1,4 C 0,0 km/h (0 Bft)
12.11.2015 09:10 0,9 C 0,5 C 85 % 1027,8 hPa 0,0 mm 0,0 km/h (0 Bft) O-NO 67 -1,3 C 0,0 km/h (0 Bft)
12.11.2015 09:15 1,1 C 0,6 C 91 % 1027,8 hPa 0,0 mm 0,0 km/h (0 Bft) O-NO 67 -0,2 C 0,0 km/h (0 Bft)
12.11.2015 09:20 1,3 C 0,9 C 85 % 1027,8 hPa 0,0 mm 0,0 km/h (0 Bft) O-NO 67 -0,9 C 0,0 km/h (0 Bft)
12.11.2015 09:25 1,5 C 0,9 C 91 % 1027,8 hPa 0,0 mm 0,0 km/h (0 Bft) O-NO 67 0,2 C 0,0 km/h (0 Bft)
12.11.2015 09:30 1,5 C 1,7 C 91 % 1027,6 hPa 0,0 mm 0,0 km/h (0 Bft) SO 135 0,2 C 0,0 km/h (0 Bft)
12.11.2015 09:35 1,7 C 2,0 C 91 % 1027,6 hPa 0,0 mm 0,0 km/h (0 Bft) SO 135 0,4 C 0,0 km/h (0 Bft)
12.11.2015 09:40 2,1 C 2,3 C 91 % 1027,6 hPa 0,0 mm 0,0 km/h (0 Bft) SO 135 0,8 C 0,0 km/h (0 Bft)
12.11.2015 09:45 2,5 C 2,5 C 91 % 1027,6 hPa 0,0 mm 0,0 km/h (0 Bft) S-SO 157 1,2 C 0,0 km/h (0 Bft)
12.11.2015 09:50 3,4 C 3,2 C 90 % 1027,8 hPa 0,0 mm 0,0 km/h (0 Bft) S-SO 157 1,9 C 0,0 km/h (0 Bft)
12.11.2015 09:55 3,7 C 3,5 C 90 % 1027,8 hPa 0,0 mm 0,0 km/h (0 Bft) SO 135 2,2 C 0,0 km/h (0 Bft)
12.11.2015 10:00 4,2 C 4,0 C 90 % 1027,8 hPa 0,0 mm 0,0 km/h (0 Bft) SO 135 2,7 C 0,0 km/h (0 Bft)
12.11.2015 10:05 4,4 C 4,2 C 90 % 1027,8 hPa 0,0 mm 0,0 km/h (0 Bft) SO 135 2,9 C 0,0 km/h (0 Bft)
12.11.2015 10:10 4,5 C 4,5 C 90 % 1027,8 hPa 0,0 mm 0,0 km/h (0 Bft) S 180 3,0 C 0,0 km/h (0 Bft)
12.11.2015 10:15 4,8 C 4,7 C 90 % 1027,8 hPa 0,0 mm 0,0 km/h (0 Bft) S 180 3,3 C 0,0 km/h (0 Bft)
12.11.2015 10:20 5,4 C 5,3 C 89 % 1027,8 hPa 0,0 mm 0,0 km/h (0 Bft) O-NO 67 3,7 C 0,0 km/h (0 Bft)
12.11.2015 10:25 5,8 C 5,6 C 89 % 1027,8 hPa 0,0 mm 0,0 km/h (0 Bft) O-NO 67 4,1 C 0,0 km/h (0 Bft)
12.11.2015 10:30 5,6 C 5,6 C 88 % 1027,9 hPa 0,0 mm 0,3 km/h (0 Bft) W-SW 247 3,8 C 0,0 km/h (0 Bft)
12.11.2015 10:35 5,4 C 5,9 C 88 % 1027,9 hPa 0,0 mm 0,3 km/h (0 Bft) NW 315 3,6 C 0,0 km/h (0 Bft)
12.11.2015 10:40 5,6 C 6,3 C 88 % 1027,9 hPa 0,0 mm 0,0 km/h (0 Bft) NW 315 3,8 C 0,0 km/h (0 Bft)
12.11.2015 10:45 6,0 C 6,6 C 87 % 1027,9 hPa 0,0 mm 0,0 km/h (0 Bft) NW 315 4,0 C 0,0 km/h (0 Bft)
12.11.2015 10:50 5,9 C 6,5 C 88 % 1027,9 hPa 0,0 mm 0,5 km/h (0 Bft) N-NW 337 4,1 C 7,0 km/h (2 Bft)
12.11.2015 10:55 6,0 C 6,6 C 87 % 1027,9 hPa 0,0 mm 1,3 km/h (1 Bft) NW 315 4,0 C 0,0 km/h (0 Bft)
12.11.2015 11:00 6,3 C 6,7 C 86 % 1027,9 hPa 0,0 mm 2,1 km/h (1 Bft) W-SW 247 4,1 C 8,0 km/h (2 Bft)
12.11.2015 11:05 6,3 C 6,7 C 86 % 1027,9 hPa 0,0 mm 1,6 km/h (1 Bft) S-SW 202 4,1 C 0,0 km/h (0 Bft)
12.11.2015 11:10 6,5 C 6,8 C 86 % 1027,6 hPa 0,0 mm 0,8 km/h (0 Bft) S 180 4,3 C 0,0 km/h (0 Bft)
12.11.2015 11:15 6,4 C 6,9 C 86 % 1027,6 hPa 0,0 mm 0,0 km/h (0 Bft) S-SO 157 4,2 C 0,0 km/h (0 Bft)
12.11.2015 11:20 6,2 C 7,1 C 85 % 1027,6 hPa 0,0 mm 0,5 km/h (0 Bft) O-SO 112 3,9 C 0,0 km/h (0 Bft)
12.11.2015 11:25 6,7 C 7,2 C 85 % 1027,6 hPa 0,0 mm 0,5 km/h (0 Bft) O-SO 112 4,4 C 0,0 km/h (0 Bft)
12.11.2015 11:30 7,0 C 7,3 C 84 % 1027,6 hPa 0,0 mm 0,0 km/h (0 Bft) O-NO 67 4,5 C 0,0 km/h (0 Bft)
12.11.2015 11:35 6,9 C 7,3 C 84 % 1027,6 hPa 0,0 mm 0,0 km/h (0 Bft) O-NO 67 4,4 C 0,0 km/h (0 Bft)
12.11.2015 11:40 7,2 C 7,5 C 84 % 1027,6 hPa 0,0 mm 0,0 km/h (0 Bft) O 90 4,7 C 0,0 km/h (0 Bft)
12.11.2015 11:45 7,1 C 7,7 C 83 % 1027,6 hPa 0,0 mm 0,0 km/h (0 Bft) O-NO 67 4,4 C 0,0 km/h (0 Bft)
12.11.2015 11:50 7,1 C 7,9 C 83 % 1027,3 hPa 0,0 mm 0,5 km/h (0 Bft) NO 45 4,4 C 0,0 km/h (0 Bft)
12.11.2015 11:55 7,0 C 8,0 C 82 % 1027,3 hPa 0,0 mm 0,5 km/h (0 Bft) O 90 4,1 C 0,0 km/h (0 Bft)
12.11.2015 12:00 7,3 C 8,3 C 82 % 1027,3 hPa 0,0 mm 0,3 km/h (0 Bft) O-SO 112 4,4 C 0,0 km/h (0 Bft)
12.11.2015 12:05 7,7 C 8,3 C 82 % 1027,3 hPa 0,0 mm 0,3 km/h (0 Bft) O-NO 67 4,8 C 3,4 km/h (1 Bft)
12.11.2015 12:10 7,6 C 8,5 C 80 % 1026,9 hPa 0,0 mm 0,3 km/h (0 Bft) NW 315 4,4 C 0,0 km/h (0 Bft)
12.11.2015 12:15 7,8 C 8,5 C 80 % 1026,9 hPa 0,0 mm 0,0 km/h (0 Bft) W-NW 292 4,6 C 0,0 km/h (0 Bft)
12.11.2015 12:20 8,1 C 8,6 C 79 % 1026,9 hPa 0,0 mm 0,0 km/h (0 Bft) N-NO 22 4,7 C 0,0 km/h (0 Bft)
12.11.2015 12:25 8,1 C 8,7 C 78 % 1026,9 hPa 0,0 mm 0,0 km/h (0 Bft) O-NO 67 4,5 C 0,0 km/h (0 Bft)
12.11.2015 12:30 8,2 C 8,9 C 78 % 1026,8 hPa 0,0 mm 0,0 km/h (0 Bft) NO 45 4,6 C 0,0 km/h (0 Bft)
12.11.2015 12:35 8,2 C 9,0 C 77 % 1026,8 hPa 0,0 mm 0,0 km/h (0 Bft) O-NO 67 4,4 C 0,0 km/h (0 Bft)
12.11.2015 12:40 8,5 C 9,1 C 76 % 1026,8 hPa 0,0 mm 0,0 km/h (0 Bft) O-SO 112 4,5 C 0,0 km/h (0 Bft)
12.11.2015 12:45 8,7 C 9,1 C 76 % 1026,8 hPa 0,0 mm 0,0 km/h (0 Bft) O 90 4,7 C 0,0 km/h (0 Bft)
12.11.2015 12:50 9,1 C 9,3 C 74 % 1026,4 hPa 0,0 mm 0,0 km/h (0 Bft) NO 45 4,7 C 0,0 km/h (0 Bft)
12.11.2015 12:55 8,8 C 9,5 C 73 % 1026,4 hPa 0,0 mm 0,0 km/h (0 Bft) NO 45 4,2 C 0,0 km/h (0 Bft)
12.11.2015 13:00 8,9 C 9,7 C 74 % 1026,4 hPa 0,0 mm 0,0 km/h (0 Bft) O-NO 67 4,5 C 0,0 km/h (0 Bft)
12.11.2015 13:05 9,1 C 9,7 C 72 % 1026,4 hPa 0,0 mm 0,3 km/h (0 Bft) NO 45 4,3 C 3,4 km/h (1 Bft)
12.11.2015 13:10 9,4 C 9,9 C 71 % 1026,2 hPa 0,0 mm 0,3 km/h (0 Bft) O-NO 67 4,4 C 2,6 km/h (1 Bft)
12.11.2015 13:15 9,4 C 10,2 C 71 % 1026,2 hPa 0,0 mm 0,8 km/h (0 Bft) O 90 4,4 C 0,0 km/h (0 Bft)
12.11.2015 13:20 9,9 C 11,6 C 70 % 1026,2 hPa 0,0 mm 0,5 km/h (0 Bft) O-NO 67 4,7 C 0,0 km/h (0 Bft)
12.11.2015 13:25 10,3 C 13,3 C 69 % 1026,2 hPa 0,0 mm 0,5 km/h (0 Bft) O-SO 112 4,9 C 0,0 km/h (0 Bft)
12.11.2015 13:30 10,8 C 13,3 C 68 % 1026,1 hPa 0,0 mm 0,5 km/h (0 Bft) O-SO 112 5,1 C 0,0 km/h (0 Bft)
12.11.2015 13:35 11,2 C 13,3 C 68 % 1026,1 hPa 0,0 mm 0,5 km/h (0 Bft) O-SO 112 5,5 C 0,0 km/h (0 Bft)
12.11.2015 13:40 11,3 C 13,3 C 67 % 1026,1 hPa 0,0 mm 0,5 km/h (0 Bft) O-SO 112 5,4 C 0,0 km/h (0 Bft)
12.11.2015 13:45 11,6 C 13,3 C 67 % 1026,1 hPa 0,0 mm 0,0 km/h (0 Bft) O-SO 112 5,7 C 0,0 km/h (0 Bft)
12.11.2015 13:50 11,2 C 13,3 C 65 % 1026,9 hPa 0,0 mm 0,0 km/h (0 Bft) O-SO 112 4,9 C 0,0 km/h (0 Bft)
12.11.2015 13:55 11,1 C 13,3 C 66 % 1026,9 hPa 0,0 mm 0,0 km/h (0 Bft) O-SO 112 5,0 C 0,0 km/h (0 Bft)
12.11.2015 14:00 11,2 C 13,3 C 66 % 1026,9 hPa 0,0 mm 0,0 km/h (0 Bft) O-SO 112 5,1 C 0,0 km/h (0 Bft)
12.11.2015 14:05 11,2 C 13,3 C 66 % 1026,9 hPa 0,0 mm 0,0 km/h (0 Bft) O-SO 112 5,1 C 0,0 km/h (0 Bft)
12.11.2015 14:10 11,0 C 13,3 C 66 % 1027,1 hPa 0,0 mm 0,0 km/h (0 Bft) O-SO 112 4,9 C 0,0 km/h (0 Bft)
12.11.2015 14:15 10,9 C 13,3 C 66 % 1027,1 hPa 0,0 mm 0,0 km/h (0 Bft) O-SO 112 4,8 C 0,0 km/h (0 Bft)
12.11.2015 14:20 11,1 C 13,3 C 66 % 1027,1 hPa 0,0 mm 0,0 km/h (0 Bft) O-SO 112 5,0 C 0,0 km/h (0 Bft)
12.11.2015 14:25 11,3 C 13,3 C 66 % 1027,1 hPa 0,0 mm 0,0 km/h (0 Bft) O-SO 112 5,2 C 0,0 km/h (0 Bft)
12.11.2015 14:30 11,5 C 17,2 C 66 % 1027,8 hPa 0,0 mm 2,6 km/h (1 Bft) O-SO 112 5,4 C 2,8 km/h (1 Bft)
12.11.2015 14:35 11,5 C 17,0 C 66 % 1027,8 hPa 0,0 mm 2,3 km/h (1 Bft) O 90 5,4 C 0,0 km/h (0 Bft)
12.11.2015 14:40 11,4 C 17,0 C 65 % 1027,8 hPa 0,0 mm 1,0 km/h (0 Bft) O-NO 67 5,1 C 0,0 km/h (0 Bft)
12.11.2015 14:44 11,4 C 16,9 C 65 % 1027,8 hPa 0,0 mm 0,5 km/h (0 Bft) O 90 5,1 C 2,8 km/h (1 Bft)
12.11.2015 14:45 11,4 C 16,9 C 65 % 1027,8 hPa 0,0 mm 0,5 km/h (0 Bft) O 90 5,1 C 2,8 km/h (1 Bft)
12.11.2015 14:50 11,3 C 16,9 C 65 % 1027,0 hPa 0,0 mm 0,5 km/h (0 Bft) O 90 5,0 C 2,8 km/h (1 Bft)
12.11.2015 14:55 11,3 C 16,9 C 65 % 1027,0 hPa 0,0 mm 0,5 km/h (0 Bft) O 90 5,0 C 2,8 km/h (1 Bft)
12.11.2015 15:00 11,1 C 16,9 C 65 % 1027,0 hPa 0,0 mm 0,5 km/h (0 Bft) O 90 4,8 C 2,8 km/h (1 Bft)
12.11.2015 15:05 11,0 C 16,9 C 65 % 1027,0 hPa 0,0 mm 0,0 km/h (0 Bft) O 90 4,7 C 0,0 km/h (0 Bft)
12.11.2015 15:10 10,5 C 16,9 C 65 % 1026,5 hPa 0,0 mm 0,0 km/h (0 Bft) O 90 4,2 C 0,0 km/h (0 Bft)
12.11.2015 15:15 10,0 C 16,9 C 65 % 1026,5 hPa 0,0 mm 0,0 km/h (0 Bft) O 90 3,7 C 0,0 km/h (0 Bft)
12.11.2015 15:20 9,6 C 16,9 C 65 % 1026,5 hPa 0,0 mm 0,0 km/h (0 Bft) O 90 3,4 C 0,0 km/h (0 Bft)
12.11.2015 15:25 9,7 C 16,9 C 66 % 1026,5 hPa 0,0 mm 0,0 km/h (0 Bft) O 90 3,7 C 0,0 km/h (0 Bft)
12.11.2015 15:30 9,5 C 16,9 C 67 % 1026,5 hPa 0,0 mm 0,0 km/h (0 Bft) O 90 3,7 C 0,0 km/h (0 Bft)
12.11.2015 15:35 9,3 C 10,3 C 67 % 1026,5 hPa 0,0 mm 0,5 km/h (0 Bft) O-NO 67 3,5 C 2,6 km/h (1 Bft)
12.11.2015 15:40 9,0 C 9,6 C 67 % 1026,5 hPa 0,0 mm 0,5 km/h (0 Bft) O-NO 67 3,2 C 0,0 km/h (0 Bft)
12.11.2015 15:45 9,0 C 9,3 C 67 % 1026,5 hPa 0,0 mm 0,0 km/h (0 Bft) NO 45 3,2 C 0,0 km/h (0 Bft)
12.11.2015 15:50 9,2 C 9,1 C 68 % 1026,1 hPa 0,0 mm 0,0 km/h (0 Bft) SO 135 3,6 C 0,0 km/h (0 Bft)
12.11.2015 15:55 8,8 C 8,8 C 68 % 1026,1 hPa 0,0 mm 0,0 km/h (0 Bft) SO 135 3,2 C 0,0 km/h (0 Bft)
12.11.2015 16:00 8,8 C 8,7 C 69 % 1026,1 hPa 0,0 mm 0,0 km/h (0 Bft) SO 135 3,4 C 0,0 km/h (0 Bft)
12.11.2015 16:05 8,8 C 8,7 C 69 % 1026,1 hPa 0,0 mm 0,0 km/h (0 Bft) O-NO 67 3,4 C 0,0 km/h (0 Bft)
12.11.2015 16:10 8,6 C 8,5 C 70 % 1025,9 hPa 0,0 mm 0,0 km/h (0 Bft) SO 135 3,4 C 0,0 km/h (0 Bft)
12.11.2015 16:15 8,6 C 8,4 C 70 % 1025,9 hPa 0,0 mm 0,0 km/h (0 Bft) SO 135 3,4 C 0,0 km/h (0 Bft)
12.11.2015 16:20 8,4 C 8,2 C 70 % 1025,9 hPa 0,0 mm 0,0 km/h (0 Bft) S-SO 157 3,3 C 0,0 km/h (0 Bft)
12.11.2015 16:25 8,4 C 8,1 C 71 % 1025,9 hPa 0,0 mm 0,3 km/h (0 Bft) O-SO 112 3,5 C 0,0 km/h (0 Bft)
12.11.2015 16:30 8,2 C 8,0 C 72 % 1025,8 hPa 0,0 mm 0,5 km/h (0 Bft) S-SO 157 3,5 C 0,0 km/h (0 Bft)
12.11.2015 16:35 8,1 C 7,9 C 72 % 1025,8 hPa 0,0 mm 1,0 km/h (0 Bft) S-SO 157 3,4 C 0,0 km/h (0 Bft)
12.11.2015 16:40 7,7 C 7,5 C 74 % 1025,8 hPa 0,0 mm 0,8 km/h (0 Bft) S-SO 157 3,4 C 0,0 km/h (0 Bft)
12.11.2015 16:45 7,6 C 7,4 C 74 % 1025,8 hPa 0,0 mm 0,3 km/h (0 Bft) S-SO 157 3,3 C 2,8 km/h (1 Bft)
12.11.2015 16:50 7,5 C 7,2 C 75 % 1025,7 hPa 0,0 mm 1,0 km/h (0 Bft) S-SO 157 3,4 C 2,6 km/h (1 Bft)
12.11.2015 16:55 7,3 C 7,1 C 75 % 1025,7 hPa 0,0 mm 1,0 km/h (0 Bft) S-SO 157 3,2 C 0,0 km/h (0 Bft)
12.11.2015 17:00 6,6 C 6,5 C 74 % 1025,7 hPa 0,0 mm 0,0 km/h (0 Bft) SO 135 2,3 C 0,0 km/h (0 Bft)
12.11.2015 17:05 5,7 C 5,7 C 74 % 1025,7 hPa 0,0 mm 0,0 km/h (0 Bft) SW 225 1,4 C 0,0 km/h (0 Bft)
12.11.2015 17:10 5,4 C 5,2 C 75 % 1025,5 hPa 0,0 mm 0,0 km/h (0 Bft) SW 225 1,3 C 0,0 km/h (0 Bft)
12.11.2015 17:15 5,4 C 5,0 C 76 % 1025,5 hPa 0,0 mm 0,0 km/h (0 Bft) S 180 1,5 C 0,0 km/h (0 Bft)
12.11.2015 17:20 6,0 C 5,4 C 78 % 1025,5 hPa 0,0 mm 0,0 km/h (0 Bft) SO 135 2,5 C 0,0 km/h (0 Bft)
12.11.2015 17:25 5,5 C 5,1 C 78 % 1025,5 hPa 0,0 mm 0,3 km/h (0 Bft) SW 225 2,0 C 0,0 km/h (0 Bft)
12.11.2015 17:30 4,8 C 4,4 C 77 % 1025,6 hPa 0,0 mm 0,0 km/h (0 Bft) S-SW 202 1,1 C 0,0 km/h (0 Bft)
12.11.2015 17:35 4,8 C 4,3 C 78 % 1025,6 hPa 0,0 mm 0,0 km/h (0 Bft) S-SO 157 1,3 C 0,0 km/h (0 Bft)
12.11.2015 17:40 4,8 C 4,2 C 79 % 1025,6 hPa 0,0 mm 0,0 km/h (0 Bft) S-SO 157 1,5 C 0,0 km/h (0 Bft)
12.11.2015 17:45 4,7 C 4,1 C 79 % 1025,6 hPa 0,0 mm 0,0 km/h (0 Bft) SO 135 1,4 C 0,0 km/h (0 Bft)
12.11.2015 17:50 4,0 C 3,6 C 78 % 1025,2 hPa 0,0 mm 0,0 km/h (0 Bft) SO 135 0,5 C 0,0 km/h (0 Bft)
12.11.2015 17:55 3,7 C 3,4 C 79 % 1025,2 hPa 0,0 mm 0,0 km/h (0 Bft) SO 135 0,4 C 0,0 km/h (0 Bft)
12.11.2015 18:00 3,3 C 3,0 C 79 % 1025,2 hPa 0,0 mm 0,0 km/h (0 Bft) SO 135 0,0 C 0,0 km/h (0 Bft)
12.11.2015 18:05 3,8 C 3,3 C 81 % 1025,2 hPa 0,0 mm 0,0 km/h (0 Bft) O-SO 112 0,8 C 0,0 km/h (0 Bft)
12.11.2015 18:10 3,3 C 3,0 C 80 % 1025,2 hPa 0,0 mm 0,0 km/h (0 Bft) O-SO 112 0,2 C 0,0 km/h (0 Bft)
12.11.2015 18:15 3,1 C 2,8 C 80 % 1025,2 hPa 0,0 mm 0,0 km/h (0 Bft) O-SO 112 -0,0 C 0,0 km/h (0 Bft)
12.11.2015 18:20 2,7 C 2,5 C 81 % 1025,2 hPa 0,0 mm 0,0 km/h (0 Bft) S-SO 157 -0,2 C 0,0 km/h (0 Bft)
12.11.2015 18:25 2,6 C 2,4 C 81 % 1025,2 hPa 0,0 mm 0,0 km/h (0 Bft) O-SO 112 -0,3 C 0,0 km/h (0 Bft)
12.11.2015 18:30 2,8 C 2,4 C 82 % 1025,3 hPa 0,0 mm 0,0 km/h (0 Bft) S 180 0,0 C 0,0 km/h (0 Bft)
12.11.2015 18:35 2,9 C 2,5 C 83 % 1025,3 hPa 0,0 mm 0,0 km/h (0 Bft) SO 135 0,3 C 0,0 km/h (0 Bft)
12.11.2015 18:40 2,6 C 2,4 C 83 % 1025,3 hPa 0,0 mm 0,0 km/h (0 Bft) O-SO 112 0,0 C 0,0 km/h (0 Bft)
12.11.2015 18:45 2,4 C 2,2 C 83 % 1025,3 hPa 0,0 mm 0,0 km/h (0 Bft) O-SO 112 -0,2 C 0,0 km/h (0 Bft)
12.11.2015 18:50 2,4 C 2,2 C 84 % 1025,2 hPa 0,0 mm 0,0 km/h (0 Bft) S-SO 157 -0,0 C 0,0 km/h (0 Bft)
12.11.2015 18:55 2,4 C 2,2 C 84 % 1025,2 hPa 0,0 mm 0,0 km/h (0 Bft) O-SO 112 -0,0 C 0,0 km/h (0 Bft)
12.11.2015 19:00 2,6 C 2,4 C 84 % 1025,2 hPa 0,0 mm 0,0 km/h (0 Bft) SO 135 0,2 C 0,0 km/h (0 Bft)
12.11.2015 19:05 2,8 C 2,6 C 85 % 1025,2 hPa 0,0 mm 0,3 km/h (0 Bft) NW 315 0,5 C 5,7 km/h (1 Bft)
12.11.2015 19:10 2,3 C 2,3 C 85 % 1025,1 hPa 0,0 mm 1,0 km/h (0 Bft) N-NW 337 0,0 C 0,0 km/h (0 Bft)
12.11.2015 19:15 2,1 C 2,0 C 85 % 1025,1 hPa 0,0 mm 1,0 km/h (0 Bft) N-NW 337 -0,2 C 0,0 km/h (0 Bft)
12.11.2015 19:20 2,2 C 2,0 C 85 % 1025,1 hPa 0,0 mm 0,0 km/h (0 Bft) N-NW 337 -0,1 C 0,0 km/h (0 Bft)
12.11.2015 19:25 2,1 C 1,9 C 85 % 1025,1 hPa 0,0 mm 0,0 km/h (0 Bft) N-NW 337 -0,2 C 0,0 km/h (0 Bft)
12.11.2015 19:30 2,3 C 1,9 C 86 % 1024,9 hPa 0,0 mm 0,0 km/h (0 Bft) S 180 0,2 C 0,0 km/h (0 Bft)
12.11.2015 19:35 2,5 C 2,2 C 82 % 1024,9 hPa 0,0 mm 0,0 km/h (0 Bft) S-SO 157 -0,3 C 0,0 km/h (0 Bft)
12.11.2015 19:40 3,0 C 3,1 C 82 % 1024,9 hPa 0,0 mm 1,0 km/h (0 Bft) S-SO 157 0,2 C 0,0 km/h (0 Bft)
12.11.2015 19:45 3,5 C 3,4 C 83 % 1024,9 hPa 0,0 mm 1,0 km/h (0 Bft) SW 225 0,9 C 0,0 km/h (0 Bft)
12.11.2015 19:50 3,8 C 3,6 C 83 % 1024,9 hPa 0,0 mm 2,1 km/h (1 Bft) SW 225 1,2 C 12,2 km/h (2 Bft)
12.11.2015 19:55 3,7 C 3,4 C 88 % 1024,9 hPa 0,0 mm 2,8 km/h (1 Bft) NO 45 1,9 C 0,0 km/h (0 Bft)
12.11.2015 20:00 2,3 C 2,2 C 87 % 1024,9 hPa 0,0 mm 1,3 km/h (1 Bft) NO 45 0,4 C 0,0 km/h (0 Bft)
12.11.2015 20:05 2,1 C 1,9 C 86 % 1024,9 hPa 0,0 mm 0,0 km/h (0 Bft) NO 45 0,0 C 0,0 km/h (0 Bft)
12.11.2015 20:10 1,9 C 1,7 C 86 % 1024,6 hPa 0,0 mm 0,0 km/h (0 Bft) O-NO 67 -0,2 C 0,0 km/h (0 Bft)
12.11.2015 20:15 1,8 C 1,6 C 86 % 1024,6 hPa 0,0 mm 0,0 km/h (0 Bft) N-NO 22 -0,3 C 0,0 km/h (0 Bft)
12.11.2015 20:20 1,9 C 1,6 C 86 % 1024,6 hPa 0,0 mm 0,0 km/h (0 Bft) N-NO 22 -0,2 C 0,0 km/h (0 Bft)
12.11.2015 20:25 1,7 C 1,4 C 86 % 1024,6 hPa 0,0 mm 0,0 km/h (0 Bft) N-NO 22 -0,4 C 0,0 km/h (0 Bft)
12.11.2015 20:30 1,4 C 1,1 C 86 % 1024,8 hPa 0,0 mm 0,0 km/h (0 Bft) O-NO 67 -0,7 C 0,0 km/h (0 Bft)
12.11.2015 20:35 1,2 C 0,9 C 86 % 1024,8 hPa 0,0 mm 0,0 km/h (0 Bft) O-NO 67 -0,9 C 0,0 km/h (0 Bft)
12.11.2015 20:40 1,2 C 0,9 C 86 % 1024,8 hPa 0,0 mm 0,0 km/h (0 Bft) NO 45 -0,9 C 0,0 km/h (0 Bft)
12.11.2015 20:43 1,5 C 1,1 C 87 % 1024,8 hPa 0,0 mm 0,0 km/h (0 Bft) N-NW 337 -0,4 C 0,0 km/h (0 Bft)
12.11.2015 20:45 1,5 C 1,1 C 87 % 1024,8 hPa 0,0 mm 0,0 km/h (0 Bft) N-NW 337 -0,4 C 0,0 km/h (0 Bft)
12.11.2015 20:50 1,1 C 0,8 C 86 % 1024,6 hPa 0,0 mm 0,0 km/h (0 Bft) N-NW 337 -1,0 C 0,0 km/h (0 Bft)
12.11.2015 20:55 1,2 C 0,9 C 87 % 1024,6 hPa 0,0 mm 0,0 km/h (0 Bft) NW 315 -0,7 C 0,0 km/h (0 Bft)
12.11.2015 21:00 0,8 C 0,6 C 87 % 1024,6 hPa 0,0 mm 0,0 km/h (0 Bft) NW 315 -1,1 C 0,0 km/h (0 Bft)
12.11.2015 21:05 0,5 C 0,4 C 86 % 1024,6 hPa 0,0 mm 0,0 km/h (0 Bft) NW 315 -1,6 C 0,0 km/h (0 Bft)
12.11.2015 21:10 0,6 C 0,4 C 87 % 1024,4 hPa 0,0 mm 0,0 km/h (0 Bft) S 180 -1,3 C 0,0 km/h (0 Bft)
12.11.2015 21:15 1,0 C 0,7 C 87 % 1024,4 hPa 0,0 mm 0,0 km/h (0 Bft) S-SO 157 -0,9 C 0,0 km/h (0 Bft)
12.11.2015 21:20 0,8 C 0,6 C 87 % 1024,4 hPa 0,0 mm 0,0 km/h (0 Bft) SW 225 -1,1 C 0,0 km/h (0 Bft)
12.11.2015 21:25 0,7 C 0,5 C 87 % 1024,4 hPa 0,0 mm 0,0 km/h (0 Bft) SW 225 -1,2 C 0,0 km/h (0 Bft)
12.11.2015 21:30 0,6 C 0,4 C 87 % 1024,4 hPa 0,0 mm 0,0 km/h (0 Bft) S-SO 157 -1,3 C 0,0 km/h (0 Bft)
12.11.2015 21:35 0,9 C 0,6 C 88 % 1024,4 hPa 0,0 mm 0,0 km/h (0 Bft) SW 225 -0,9 C 0,0 km/h (0 Bft)
12.11.2015 21:40 1,2 C 1,1 C 84 % 1024,4 hPa 0,0 mm 0,3 km/h (0 Bft) S-SW 202 -1,2 C 3,1 km/h (1 Bft)
12.11.2015 21:45 0,7 C 0,7 C 89 % 1024,4 hPa 0,0 mm 0,3 km/h (0 Bft) SO 135 -0,9 C 0,0 km/h (0 Bft)
12.11.2015 21:50 0,6 C 0,7 C 88 % 1024,2 hPa 0,0 mm 0,3 km/h (0 Bft) SO 135 -1,2 C 0,0 km/h (0 Bft)
12.11.2015 21:55 1,4 C 1,5 C 84 % 1024,2 hPa 0,0 mm 0,3 km/h (0 Bft) SO 135 -1,0 C 0,0 km/h (0 Bft)
12.11.2015 22:00 2,4 C 1,9 C 90 % 1024,2 hPa 0,0 mm 2,6 km/h (1 Bft) W-SW 247 0,9 C 5,4 km/h (1 Bft)
12.11.2015 22:05 1,3 C 1,2 C 90 % 1024,2 hPa 0,0 mm 2,6 km/h (1 Bft) W-SW 247 -0,2 C 5,4 km/h (1 Bft)
12.11.2015 22:10 0,6 C 0,6 C 89 % 1024,1 hPa 0,0 mm 1,0 km/h (0 Bft) S-SO 157 -1,0 C 0,0 km/h (0 Bft)
12.11.2015 22:15 0,5 C 0,4 C 89 % 1024,1 hPa 0,0 mm 0,3 km/h (0 Bft) S-SO 157 -1,1 C 0,0 km/h (0 Bft)
12.11.2015 22:20 0,7 C 0,5 C 89 % 1024,1 hPa 0,0 mm 0,3 km/h (0 Bft) S-SO 157 -0,9 C 0,0 km/h (0 Bft)
12.11.2015 22:25 0,5 C 0,2 C 89 % 1024,1 hPa 0,0 mm 0,0 km/h (0 Bft) S-SO 157 -1,1 C 0,0 km/h (0 Bft)
12.11.2015 22:30 0,5 C 0,1 C 89 % 1024,4 hPa 0,0 mm 0,0 km/h (0 Bft) S-SO 157 -1,1 C 0,0 km/h (0 Bft)
12.11.2015 22:35 0,4 C 0,1 C 89 % 1024,4 hPa 0,0 mm 0,0 km/h (0 Bft) SW 225 -1,2 C 0,0 km/h (0 Bft)
12.11.2015 22:40 0,4 C 0,0 C 89 % 1024,4 hPa 0,0 mm 0,0 km/h (0 Bft) SW 225 -1,2 C 0,0 km/h (0 Bft)
12.11.2015 22:45 0,2 C -0,1 C 89 % 1024,4 hPa 0,0 mm 0,0 km/h (0 Bft) SW 225 -1,4 C 0,0 km/h (0 Bft)
12.11.2015 22:50 0,6 C 0,1 C 89 % 1024,1 hPa 0,0 mm 0,0 km/h (0 Bft) S-SO 157 -1,0 C 0,0 km/h (0 Bft)
12.11.2015 22:55 0,9 C 0,3 C 89 % 1024,1 hPa 0,0 mm 0,0 km/h (0 Bft) S-SO 157 -0,7 C 0,0 km/h (0 Bft)
12.11.2015 23:00 0,4 C 0,1 C 89 % 1024,1 hPa 0,0 mm 0,0 km/h (0 Bft) S-SO 157 -1,2 C 0,0 km/h (0 Bft)
12.11.2015 23:05 0,5 C 0,1 C 89 % 1024,1 hPa 0,0 mm 0,0 km/h (0 Bft) S-SO 157 -1,1 C 0,0 km/h (0 Bft)
12.11.2015 23:10 0,1 C -0,2 C 89 % 1023,8 hPa 0,0 mm 0,0 km/h (0 Bft) S-SO 157 -1,5 C 0,0 km/h (0 Bft)
12.11.2015 23:15 0,5 C 0,1 C 89 % 1023,8 hPa 0,0 mm 0,0 km/h (0 Bft) S-SO 157 -1,1 C 0,0 km/h (0 Bft)
12.11.2015 23:20 0,2 C -0,1 C 89 % 1023,8 hPa 0,0 mm 0,0 km/h (0 Bft) S-SO 157 -1,4 C 0,0 km/h (0 Bft)
12.11.2015 23:25 0,1 C -0,2 C 89 % 1023,8 hPa 0,0 mm 0,0 km/h (0 Bft) S-SO 157 -1,5 C 0,0 km/h (0 Bft)
12.11.2015 23:30 0,4 C 0,0 C 90 % 1023,6 hPa 0,0 mm 0,0 km/h (0 Bft) S-SO 157 -1,0 C 0,0 km/h (0 Bft)
12.11.2015 23:35 0,2 C -0,1 C 89 % 1023,6 hPa 0,0 mm 0,0 km/h (0 Bft) S-SO 157 -1,4 C 0,0 km/h (0 Bft)
12.11.2015 23:40 -0,1 C -0,3 C 89 % 1023,6 hPa 0,0 mm 0,0 km/h (0 Bft) S-SO 157 -1,7 C 0,0 km/h (0 Bft)
12.11.2015 23:45 -0,1 C -0,3 C 89 % 1023,6 hPa 0,0 mm 0,0 km/h (0 Bft) S-SO 157 -1,7 C 0,0 km/h (0 Bft)
12.11.2015 23:50 0,0 C -0,2 C 89 % 1023,7 hPa 0,0 mm 0,0 km/h (0 Bft) S-SO 157 -1,6 C 0,0 km/h (0 Bft)
12.11.2015 23:55 -0,1 C -0,3 C 89 % 1023,7 hPa 0,0 mm 0,0 km/h (0 Bft) S-SO 157 -1,7 C 0,0 km/h (0 Bft)
_ Min-Zeit 07:10 08:25 15:20 23:45 - 23:55 - - 06:25 23:55
Minimum _ -1,7 C -0,4 C 65 % 1023,6 hPa - 0,0 km/h (0 Bft) - - -3,6 C 0,0 km/h (0 Bft)
_ Max-Zeit 13:45 14:30 09:45 11:05 23:55 19:55 - - 13:45 19:50
Maximum _ 11,6 C 17,2 C 91 % 1027,9 hPa 0,0 mm 2,8 km/h
NO (1 Bft)
- - 5,7 C 12,2 km/h
SW (2 Bft)
Durchschnitt _ 3,1 C 3,5 C 83 % 1025,8 hPa #0,0 mm 0,2 km/h (0 Bft) W-SW - 0,3 C 0,3 km/h (0 Bft)